Location: Pordenone
(45.9640°N, 12.6580°E)
Time: 17:35:16
(UTC+02:00)

ISS - Pass Details

Date: 16 May 2021
Orbit: 417 x 422 km, 51.6° (Epoch: 18 June)

Event Time Altitude Azimuth Distance (km) Brightness Sun altitude
Rises 01:14:41 0° 288° (WNW) 2,370 0.3 -24.9°
Reaches altitude 10° 01:16:57 10° 300° (WNW) 1,506 -0.6 -24.9°
Maximum altitude 01:19:59 30° 4° (N) 786 -1.8 -24.9°
Drops below altitude 10° 01:23:02 10° 68° (ENE) 1,508 -0.6 -24.8°
Sets 01:25:18 0° 79° (E) 2,373 0.3 -24.8°
